Wind_Speed
45 45 44 44 44 43 43 42 40 38 36 35 34 35 36 37 37 38 39 40 40 41 41 41 41 41 42 44 46 48 50 52 53 53 52 50 49 48 46 46 45 45 45 46 46 46 46 46 45 44 44 43 41 39 38 37 35 33 31 28 26 25 24 22 21 20 20 18 16 16 15 13 11 10 9 9 8 9 13 13 14 18 20 25 30 34 36 37
46 46 46 45 45 45 45 44 43 42 40 39 37 37 37 38 39 40 41 42 42 42 43 43 43 43 43 44 45 48 50 52 53 54 54 53 52 50 49 48 46 46 46 46 46 46 46 47 46 46 46 45 43 40 39 38 37 35 33 30 28 27 26 24 23 22 21 20 18 17 16 15 13 11 10 9 9 9 11 12 14 17 19 23 27 32 36 37
47 47 47 47 47 47 46 46 46 45 44 43 41 40 39 40 40 41 43 44 44 44 45 45 45 45 45 45 46 47 49 51 53 55 55 55 55 53 51 50 49 48 47 46 46 46 47 47 47 47 47 46 44 41 40 40 38 36 34 32 31 29 28 26 25 24 23 22 20 19 18 18 16 13 12 11 11 10 11 13 14 16 18 21 24 30 35 36
47 47 48 48 48 48 48 48 48 47 47 47 45 44 43 42 42 43 44 45 46 46 46 47 47 48 47 47 47 48 49 51 53 55 57 57 57 56 54 53 52 50 48 47 47 47 47 48 47 47 47 47 45 42 41 40 39 38 36 34 33 31 30 29 28 27 26 24 22 21 20 19 18 16 14 13 13 11 12 14 15 15 17 19 22 27 32 35
47 48 48 49 49 49 50 50 50 49 49 49 49 48 47 46 45 45 45 46 48 49 49 49 49 50 50 50 49 49 49 51 53 55 57 58 59 58 57 56 55 53 51 49 48 48 48 47 47 47 48 48 46 43 41 41 40 39 37 35 34 32 31 30 30 29 28 26 24 23 21 21 20 17 16 15 14 12 12 14 15 15 17 19 21 25 30 33
47 48 49 50 50 50 51 51 52 51 51 51 51 52 51 50 49 48 47 48 49 50 51 51 51 52 52 52 52 51 51 51 53 54 56 58 59 60 59 59 58 56 54 52 50 49 48 47 47 48 48 48 46 43 42 41 41 40 38 36 35 34 33 32 31 31 30 28 27 25 23 22 21 19 17 16 15 14 14 15 16 16 17 19 21 25 28 30
49 50 51 51 52 52 52 53 53 53 53 53 53 54 54 54 53 52 51 50 51 52 53 53 53 54 54 54 54 54 53 53 53 54 55 57 59 60 61 61 60 59 57 55 53 52 50 49 48 48 49 48 46 44 43 42 41 40 39 38 37 36 35 34 33 32 31 30 28 27 25 23 22 21 19 17 16 16 15 15 17 17 17 20 22 24 26 28
51 52 53 53 54 54 54 54 55 55 55 55 55 55 56 57 57 56 55 54 53 53 54 55 56 56 56 56 56 56 56 55 55 54 55 57 59 60 61 63 62 61 60 58 57 55 53 51 49 48 48 48 45 44 44 43 43 41 40 41 40 39 38 36 34 33 32 31 29 28 26 25 23 22 21 19 18 17 15 15 17 18 18 20 22 23 24 26
52 53 55 56 57 57 57 57 57 57 56 56 57 57 58 59 60 60 59 57 56 56 56 56 57 58 59 59 59 59 58 58 57 56 56 57 58 59 61 63 64 63 62 61 60 58 56 54 52 50 49 48 47 46 46 45 44 43 43 43 43 41 39 37 35 34 32 31 29 28 27 25 24 24 22 21 19 18 16 16 17 18 18 19 21 22 23 24
51 53 54 56 58 59 60 60 59 59 58 58 58 59 60 61 62 63 62 61 60 59 58 58 59 60 61 61 61 61 61 60 59 59 58 58 59 59 60 61 63 65 65 64 62 60 59 57 55 54 52 50 50 49 47 46 45 45 45 45 45 43 41 39 37 35 33 32 30 29 28 27 25 25 24 22 20 19 17 16 17 18 19 19 20 21 22 23
50 51 53 55 57 59 61 62 62 62 61 60 60 61 62 63 64 64 65 65 64 63 62 61 61 61 62 63 63 62 63 62 62 61 60 60 60 60 60 60 62 64 66 66 63 62 61 60 59 57 55 53 52 51 49 47 47 48 47 47 46 45 43 41 38 37 35 33 31 30 29 28 26 26 25 24 22 21 19 17 17 18 19 19 20 21 21 22
49 50 52 53 55 58 60 62 63 64 63 62 62 62 64 65 65 65 67 68 68 67 66 64 63 63 64 65 65 65 64 64 65 64 63 62 61 61 61 61 61 63 66 66 63 63 63 62 62 60 58 57 56 53 51 50 50 50 49 48 48 47 45 42 40 38 37 35 33 32 30 29 27 27 26 25 24 23 21 19 18 19 20 20 20 20 20 21
49 50 50 52 54 56 58 61 63 64 65 64 64 64 66 66 66 66 68 70 70 71 70 68 67 66 66 66 67 67 66 66 66 66 66 65 64 63 63 63 63 63 64 64 63 63 64 64 64 62 61 60 58 56 55 54 53 51 51 50 49 49 46 44 41 40 39 36 34 34 32 29 28 28 27 26 25 24 23 21 20 19 21 21 21 21 19 20
49 49 49 50 52 54 56 59 62 64 65 65 65 66 68 68 67 68 69 71 72 73 73 72 71 69 68 68 68 68 68 68 68 68 68 67 66 65 65 64 64 64 63 62 62 64 64 65 64 64 64 62 61 60 58 57 55 53 53 52 51 50 48 45 43 42 40 37 35 35 33 31 29 29 28 27 26 26 25 23 21 20 21 22 22 21 19 19
48 49 48 49 51 53 55 57 60 62 64 65 65 66 69 69 69 70 71 72 73 75 76 75 74 73 72 70 70 70 70 70 70 70 70 70 69 68 67 66 65 65 63 62 62 64 64 64 64 65 65 63 63 62 61 59 58 56 54 53 53 51 49 47 45 43 41 39 37 36 34 32 31 30 29 29 28 27 26 25 23 22 21 22 22 21 19 19
48 48 47 47 49 51 53 55 58 60 62 64 65 67 68 69 70 72 73 73 74 76 77 78 78 77 76 74 73 72 72 72 72 72 72 71 71 71 70 68 67 66 64 63 63 63 63 64 64 64 64 64 64 64 63 61 60 59 57 56 55 53 51 49 46 45 43 41 40 38 36 35 33 32 31 31 30 29 28 27 25 23 22 22 21 21 19 19
46 46 45 45 46 49 51 53 55 57 59 62 64 66 68 68 70 73 75 76 77 77 78 79 81 81 79 78 76 74 73 73 74 74 74 74 73 73 72 71 69 67 65 65 64 64 64 64 64 64 64 64 65 65 64 63 62 61 60 58 56 55 53 50 48 47 45 44 42 40 39 38 37 35 33 33 32 31 30 28 27 25 23 22 21 21 20 19
45 44 44 43 44 46 49 50 52 54 57 59 60 64 67 69 71 73 76 78 79 80 80 80 82 83 83 82 80 78 76 75 75 76 76 76 75 75 74 73 72 69 67 66 66 66 65 64 64 64 64 64 65 65 64 64 64 63 61 60 58 57 55 52 50 49 48 47 45 44 42 41 39 37 36 35 34 32 31 30 28 27 25 23 22 21 20 19
44 42 41 41 42 45 48 49 51 52 54 56 57 59 63 67 71 74 77 79 82 83 82 82 83 85 86 85 84 82 79 78 77 77 77 78 77 77 76 75 74 72 70 69 68 67 67 66 64 64 65 65 65 66 65 65 64 63 62 61 60 59 57 55 53 52 51 49 48 46 44 43 41 39 38 36 35 34 33 31 30 28 27 24 23 22 21 20
43 40 40 40 41 44 47 49 50 51 52 54 54 55 58 63 69 75 79 81 84 85 85 85 85 86 87 88 87 85 83 81 79 79 79 79 79 79 78 77 75 74 73 72 70 70 68 67 66 66 66 65 66 66 66 65 64 63 62 61 61 61 59 57 56 55 53 51 49 47 45 44 43 41 39 38 37 36 35 33 31 30 29 26 24 23 21 20
42 39 39 40 42 45 48 49 51 52 52 52 52 52 54 59 65 72 78 82 85 87 87 88 88 88 89 90 90 88 87 85 83 81 80 81 81 81 80 79 77 76 75 74 73 72 70 69 69 69 68 66 65 66 66 66 64 62 62 62 62 62 61 60 58 57 55 53 51 49 48 46 44 42 41 39 38 37 36 35 33 32 30 28 25 23 21 20
41 39 39 41 44 47 49 51 52 52 52 52 50 51 53 57 61 68 75 81 86 88 89 90 91 90 90 91 92 92 90 89 87 84 83 82 82 83 82 81 79 78 77 76 75 74 72 72 72 71 69 68 66 66 66 66 64 63 62 62 63 63 62 61 60 58 56 55 53 51 50 48 46 45 43 41 40 39 37 36 34 33 32 29 27 24 21 20
40 40 42 44 47 50 52 53 53 52 52 51 50 51 53 55 58 63 70 77 84 88 91 92 93 92 92 92 94 94 94 92 90 88 86 84 83 83 83 83 81 80 78 77 77 76 75 76 76 73 71 70 68 67 67 66 64 63 63 63 64 65 64 62 60 59 58 56 54 53 51 49 48 47 45 43 42 40 39 37 36 34 32 31 28 24 22 20
41 43 46 48 49 52 54 55 54 52 51 50 50 51 51 52 56 60 65 72 79 85 90 93 94 94 95 95 95 96 96 95 93 91 89 87 86 84 84 84 83 82 80 79 78 78 78 79 78 75 72 71 69 68 67 66 65 64 64 65 67 67 64 62 60 59 59 57 55 54 52 50 50 49 46 45 43 42 40 38 37 36 34 32 29 25 22 21
44 48 50 51 52 55 57 56 54 51 50 49 49 49 49 50 53 57 62 67 73 79 86 92 95 96 97 97 96 97 97 97 95 94 92 90 88 86 85 84 84 83 82 81 80 79 80 81 79 76 74 72 71 69 68 67 66 65 66 68 69 67 65 62 59 57 58 58 55 54 52 51 50 50 47 46 45 43 41 39 38 37 35 33 30 27 25 23
48 52 54 55 56 57 58 56 53 50 49 48 48 47 46 48 51 55 59 63 67 73 80 87 93 96 98 98 98 98 98 99 98 96 95 93 91 88 86 85 84 84 83 83 82 81 81 81 80 78 76 75 73 72 70 69 68 67 69 71 70 68 66 63 59 56 56 57 54 53 53 51 50 50 49 47 46 43 42 40 39 38 35 33 31 29 27 25
52 55 58 60 59 58 58 55 52 50 49 47 45 44 44 46 49 53 57 60 63 68 73 81 88 94 98 99 99 99 99 99 99 98 96 95 93 91 89 87 85 84 84 84 84 84 83 82 82 80 79 77 75 74 73 71 70 71 73 73 71 69 67 64 60 56 56 56 53 53 53 51 50 50 48 47 45 43 42 41 40 38 35 33 32 31 30 27
55 59 62 63 62 60 57 54 52 50 47 45 42 41 42 44 47 52 55 58 60 63 67 73 81 89 95 98 100 100 99 99 99 99 98 96 95 93 91 89 87 85 85 85 86 86 84 84 83 82 80 79 78 77 76 74 73 75 75 73 71 69 68 65 60 57 57 55 52 51 52 52 51 49 47 46 45 44 44 42 41 38 36 34 33 33 32 29
58 62 64 65 63 60 56 53 51 48 45 42 39 39 40 42 45 49 53 56 58 60 63 68 74 82 90 96 99 100 100 100 99 99 99 98 97 95 94 91 89 87 86 86 87 86 85 85 84 83 82 81 80 79 77 76 77 77 75 73 72 70 69 66 61 58 57 54 51 50 50 52 52 49 46 46 46 46 46 44 42 39 36 35 34 34 33 30
61 64 67 66 63 60 57 53 49 45 42 39 37 36 38 41 44 48 52 55 57 58 60 63 68 74 83 91 97 100 100 99 98 98 99 100 99 97 96 94 92 90 90 89 88 87 87 86 85 85 83 83 82 81 79 79 80 79 76 75 74 72 70 67 63 61 58 54 52 50 49 51 52 49 47 48 49 49 47 45 43 40 38 37 36 35 34 32
64 67 69 67 63 60 56 52 47 43 39 37 35 34 36 39 43 46 50 54 55 56 57 60 64 69 76 84 92 97 98 98 99 99 99 100 100 99 98 96 94 94 93 91 90 89 88 87 86 85 85 84 84 82 81 82 83 81 79 78 76 74 72 69 65 63 59 55 54 52 49 50 52 50 48 50 51 49 47 45 43 42 40 39 38 36 35 35
66 69 69 67 63 59 54 49 44 40 37 35 33 33 35 38 42 45 49 51 54 55 56 59 62 65 70 77 85 92 95 97 98 99 99 100 101 101 100 98 97 96 95 94 92 91 89 88 87 86 86 86 85 84 83 83 84 83 82 80 79 77 74 70 67 64 60 58 57 55 52 51 53 51 48 48 49 47 45 45 44 43 41 39 38 36 36 36
68 70 69 66 62 57 51 45 41 37 34 32 32 32 34 37 41 44 47 50 53 55 56 58 60 63 66 71 77 85 91 95 97 99 100 100 100 101 102 101 99 98 97 96 94 92 91 89 88 87 87 87 86 85 84 85 85 84 84 82 81 79 76 72 68 65 63 62 61 59 55 54 53 52 49 48 47 45 43 42 41 42 42 41 39 36 35 37
69 70 68 65 60 54 47 42 37 33 31 29 30 31 32 35 39 42 45 49 52 54 55 57 59 61 64 67 71 78 85 91 95 98 99 100 100 101 102 102 101 100 99 97 96 94 93 91 90 89 89 88 87 86 85 85 85 85 85 84 82 80 78 74 71 68 66 65 64 62 59 56 54 53 52 49 48 45 43 42 40 39 39 40 39 37 36 38
69 69 68 64 57 50 44 38 33 30 28 27 27 29 31 34 37 41 44 47 51 53 54 55 57 59 62 65 68 72 79 87 92 95 98 99 100 100 101 102 102 102 101 99 97 96 95 94 92 91 91 90 88 87 86 85 85 85 85 85 84 82 80 77 75 72 70 68 67 65 62 58 55 55 54 52 49 47 45 44 42 40 38 37 38 38 39 40
69 70 69 63 55 47 41 35 30 27 25 24 25 27 30 33 37 40 44 46 50 52 53 53 55 56 59 62 65 68 73 80 87 92 95 97 99 100 100 101 102 103 102 102 100 98 97 96 94 93 92 91 90 88 87 86 86 86 86 86 85 83 82 80 78 76 73 72 71 68 65 60 57 56 56 54 51 48 46 45 44 42 40 38 39 39 40 41
70 72 70 63 54 46 39 33 28 24 22 21 23 26 29 33 36 40 43 46 49 51 52 52 52 53 55 59 62 66 69 74 80 87 91 95 97 99 100 100 101 102 103 104 103 101 100 99 97 95 94 93 92 91 89 89 88 87 86 87 86 84 83 82 80 79 76 75 74 71 67 63 60 58 57 57 55 51 48 47 45 44 42 41 41 41 41 42
71 73 69 62 53 45 38 31 27 23 20 19 21 24 28 32 36 39 42 44 47 49 50 50 50 51 53 55 59 64 67 70 74 80 86 91 94 97 99 100 101 101 103 105 105 104 103 102 100 98 96 95 93 93 92 91 90 88 87 87 86 85 85 83 82 80 79 78 77 74 70 66 62 59 59 60 58 54 50 48 47 45 44 43 43 43 43 43
73 73 69 62 53 45 38 31 26 22 19 18 19 22 26 30 34 37 40 42 45 47 48 48 48 49 50 52 55 60 65 68 71 75 80 86 90 94 97 99 101 101 103 105 106 107 107 105 103 101 99 97 95 94 93 92 92 90 89 88 88 87 86 85 83 81 80 81 79 76 72 68 64 62 61 61 60 57 53 50 49 47 46 45 44 44 45 45
74 73 70 62 52 45 38 31 26 21 18 17 18 21 25 29 32 36 38 40 42 44 45 46 47 48 48 49 51 55 61 66 69 72 76 81 87 91 95 98 100 101 103 104 106 108 108 108 107 105 103 101 98 96 95 94 93 92 91 90 89 89 87 86 84 83 82 82 80 78 75 71 67 65 63 62 61 59 56 53 52 50 48 47 46 46 46 46
74 74 71 62 52 44 37 32 26 20 16 15 16 19 23 27 31 34 37 39 41 43 45 46 47 47 47 48 50 52 56 61 66 70 73 76 81 87 92 95 97 100 103 104 106 108 109 110 109 108 106 104 102 99 98 96 95 94 93 92 91 90 89 87 86 84 83 82 82 80 76 73 71 68 66 64 63 61 60 57 54 53 51 50 48 47 47 47
75 75 71 62 51 43 37 31 26 19 15 13 14 16 21 25 29 32 35 38 39 41 44 46 47 47 47 48 49 50 53 57 61 66 70 73 77 82 87 91 95 98 101 104 106 108 109 109 110 109 108 107 105 102 100 99 97 96 94 94 93 92 90 89 87 86 84 83 83 81 78 76 74 72 70 68 66 63 62 60 57 55 54 53 50 49 48 49
74 75 71 62 52 44 37 32 26 20 15 13 13 14 18 23 27 30 33 35 37 39 41 44 46 47 47 48 49 50 51 54 57 62 66 71 74 78 82 87 92 95 99 102 105 107 108 108 109 109 109 108 107 105 103 101 100 98 97 96 94 93 92 91 89 88 86 85 84 82 81 78 76 75 73 71 69 66 64 63 61 58 57 56 53 52 51 50
73 73 71 63 53 45 38 33 27 20 15 12 11 13 16 21 25 29 32 34 36 38 39 42 45 47 48 49 49 50 51 51 54 58 62 67 72 76 80 84 88 92 96 100 103 106 107 107 108 109 109 108 108 107 105 104 102 101 99 98 97 95 94 92 91 90 88 87 85 84 83 80 78 77 75 74 72 70 67 66 65 63 60 58 56 54 53 52
74 73 71 64 54 46 38 33 27 21 16 12 10 12 15 18 23 28 31 33 34 35 37 39 42 46 48 50 50 51 51 51 51 53 56 61 66 71 76 80 84 89 93 97 101 104 106 107 108 108 107 108 108 108 108 107 105 104 103 101 100 98 96 94 93 92 90 89 87 85 84 82 80 78 77 77 75 74 71 69 68 67 64 61 59 57 55 54
74 75 73 65 56 47 39 33 28 22 17 12 9 10 13 16 20 25 28 31 32 34 35 36 39 42 46 49 50 50 51 51 51 51 52 54 58 63 69 75 80 84 88 92 97 101 103 105 106 106 106 107 107 108 109 109 108 107 106 105 103 101 99 96 95 93 92 91 89 88 86 84 81 80 80 79 78 77 75 73 71 70 68 65 63 61 59 56
74 75 74 67 57 49 40 34 29 23 18 13 10 9 11 14 18 22 25 28 31 33 34 35 36 39 43 47 50 51 52 52 52 52 52 52 54 57 62 67 73 78 82 86 90 94 98 101 103 105 106 106 106 107 108 109 110 110 109 108 107 105 102 100 97 96 94 93 91 90 88 86 83 82 81 80 80 79 78 76 74 73 72 69 66 64 62 59
74 75 75 68 59 51 42 35 30 25 20 14 10 9 9 12 16 20 23 26 28 31 33 34 35 38 41 44 48 51 53 54 54 54 54 54 54 56 58 62 66 71 75 79 82 86 90 94 99 103 106 107 107 107 108 109 110 111 111 111 110 108 106 104 101 99 97 96 94 92 90 88 85 83 83 82 82 82 81 80 78 76 74 72 69 67 65 63
73 75 75 70 61 53 45 37 32 27 22 17 12 9 8 10 14 17 21 24 27 29 31 32 34 36 38 41 45 48 52 54 55 56 56 56 56 57 58 60 62 66 70 73 77 80 84 88 94 99 104 107 107 107 108 109 110 111 112 112 111 111 109 107 105 103 101 99 97 94 93 91 88 86 84 84 84 84 84 83 81 79 77 75 73 71 69 67
74 74 74 70 63 55 46 38 33 29 24 20 15 10 8 8 11 15 19 22 25 28 29 31 32 34 36 38 41 45 49 52 55 57 58 58 59 59 60 61 62 64 67 70 72 76 79 83 88 94 99 103 106 107 108 109 110 111 112 112 112 112 112 111 109 107 105 103 101 98 95 93 91 88 87 86 85 85 86 86 85 83 80 78 77 75 72 70
73 73 74 70 63 55 47 39 33 30 26 23 18 14 10 8 9 12 16 20 23 26 28 30 32 33 35 37 39 42 46 49 53 56 58 60 61 61 62 63 64 65 66 67 69 72 75 79 83 88 92 97 102 106 107 109 110 111 112 113 113 113 113 112 112 111 110 107 105 102 99 96 94 91 89 88 88 87 87 88 88 86 83 81 80 79 76 73
72 73 73 70 63 55 47 39 33 30 28 25 22 18 14 10 9 10 13 17 21 24 27 29 31 33 35 37 39 41 43 46 49 53 56 59 61 62 63 64 65 66 66 67 68 69 72 75 79 83 86 90 96 101 105 109 110 111 112 112 113 113 113 113 113 113 113 111 108 106 103 100 97 95 92 91 90 90 89 89 89 89 87 84 83 82 80 77
Wind_Direction
270 269 267 266 264 262 261 259 258 256 254 252 250 248 245 243 240 239 238 238 236 231 225 221 219 217 214 214 215 217 219 220 221 222 222 221 221 220 220 220 219 219 219 218 218 220 220 221 220 220 221 222 223 225 227 229 230 231 232 232 232 235 238 238 239 242 243 246 252 259 267 280 293 309 326 335 325 343 357 348 352 359 1 3 4 8 10 8
271 270 268 266 264 262 260 259 257 255 253 251 249 247 245 243 241 239 237 237 237 234 229 224 220 219 217 215 214 216 218 219 220 222 222 222 222 222 222 222 221 219 220 219 219 220 221 222 222 222 223 222 223 224 227 228 229 230 231 232 231 233 235 235 237 241 244 246 249 254 260 268 277 289 301 319 319 325 338 333 343 355 357 357 1 6 9 6
270 269 268 267 265 263 260 258 256 254 252 250 248 246 245 243 241 239 237 236 236 235 233 228 223 220 219 218 216 215 217 219 220 221 222 223 223 223 223 224 223 221 221 221 220 221 222 223 224 225 226 225 224 225 227 228 229 230 230 231 232 233 235 235 236 239 243 245 248 252 255 260 268 277 286 299 309 316 324 326 335 347 351 350 354 3 6 4
270 268 267 265 264 263 261 259 256 253 252 250 248 246 244 243 241 240 238 236 235 234 234 232 227 223 220 219 218 216 216 217 219 220 221 223 224 224 224 225 225 224 223 222 222 222 223 223 225 226 228 228 227 226 227 229 229 229 230 231 232 233 235 236 236 238 242 244 247 251 254 257 263 272 282 292 304 311 317 321 326 334 342 343 346 357 2 1
271 269 267 265 263 261 260 259 257 254 251 249 247 246 243 242 241 239 238 237 235 234 233 233 231 227 223 221 220 219 217 217 218 219 221 222 224 225 225 226 226 226 225 224 224 223 224 224 225 227 228 229 228 227 228 230 231 230 230 231 232 233 234 236 237 237 240 243 245 249 253 257 262 269 279 288 298 304 310 315 319 327 336 335 338 350 356 357
273 271 269 267 264 262 259 258 257 254 252 249 247 245 244 242 240 239 237 237 236 234 233 232 232 230 227 223 221 220 219 218 218 218 220 221 223 224 225 226 227 227 226 226 226 225 225 225 226 227 229 230 229 229 230 231 232 232 231 232 232 233 234 235 236 237 239 241 243 245 249 255 261 267 273 280 287 294 303 311 315 322 330 331 333 343 349 352
275 273 271 269 267 264 261 259 256 254 252 250 247 245 243 242 240 239 237 236 235 235 233 232 231 231 230 226 222 221 220 220 219 218 219 220 221 223 224 225 227 227 227 227 227 227 227 227 227 228 229 230 230 230 231 231 232 233 233 233 233 233 233 234 235 237 238 240 242 244 245 249 256 263 268 272 276 283 295 307 311 317 325 329 332 338 343 347
276 275 273 271 269 267 264 261 258 255 253 251 248 245 243 242 240 238 237 235 235 234 233 232 231 231 230 228 225 223 221 220 220 219 219 219 220 221 223 224 225 227 227 228 228 228 228 228 228 229 230 231 231 231 231 231 232 233 234 234 234 233 233 234 236 238 240 241 243 245 246 247 251 257 263 268 271 275 286 299 306 312 321 326 329 334 339 344
276 274 273 272 271 269 267 264 261 257 254 252 249 247 244 242 240 238 237 235 234 234 233 232 231 230 230 229 227 225 223 221 221 220 220 220 219 220 222 223 224 225 226 227 228 228 229 229 230 230 231 232 232 231 231 231 232 233 234 234 234 233 233 234 236 238 240 243 245 248 250 250 249 253 259 264 267 270 277 289 300 308 316 322 326 329 335 342
275 274 273 272 271 270 268 266 264 260 257 253 251 248 245 243 240 238 237 235 234 233 233 232 231 230 230 229 228 227 224 223 221 221 220 220 220 220 220 222 223 224 225 226 228 229 229 230 230 230 231 232 232 232 231 231 232 233 234 235 235 234 234 235 235 237 239 242 245 248 251 253 252 253 256 260 262 265 270 280 292 302 309 315 320 324 332 340
275 274 272 271 270 269 268 267 265 263 259 256 252 250 247 244 241 239 237 235 234 232 232 232 231 230 230 229 229 228 226 224 223 221 221 221 221 220 220 221 222 223 224 226 226 227 229 230 230 230 231 232 233 233 232 232 232 234 234 235 236 236 235 235 236 238 239 241 244 247 249 253 255 255 256 258 260 262 266 273 285 297 301 305 312 319 329 337
274 273 271 271 270 269 268 267 266 264 261 257 254 251 248 246 243 240 238 236 234 232 231 230 231 230 230 229 229 228 226 226 225 223 221 221 221 221 221 221 221 222 224 224 225 226 227 229 230 231 231 232 233 234 233 233 233 233 234 235 236 236 236 236 237 239 239 241 244 246 248 252 255 257 258 260 261 263 265 270 279 290 295 298 305 314 324 333
273 271 270 269 269 268 268 267 266 265 263 259 255 252 249 246 244 241 239 237 234 232 231 230 229 230 230 229 229 228 227 226 226 225 223 222 222 222 222 222 222 222 223 223 223 224 225 227 229 230 230 231 233 234 234 234 234 234 235 235 236 236 236 237 238 240 240 241 244 246 248 250 254 258 260 262 263 265 267 269 275 282 289 293 299 307 318 327
272 270 269 268 268 267 267 266 266 265 264 262 257 253 250 247 244 241 240 238 235 233 231 230 228 229 229 229 229 228 227 226 226 226 225 223 222 222 222 222 222 222 222 222 222 223 224 225 227 228 229 231 232 233 234 234 235 234 235 236 237 237 237 237 238 240 241 242 244 246 248 250 253 257 260 262 264 265 267 269 272 277 284 290 295 303 312 320
273 271 270 269 268 267 266 265 264 264 263 262 260 255 251 247 244 241 239 238 236 234 231 230 228 228 228 229 229 228 227 226 226 226 226 225 224 223 222 223 223 223 222 222 223 223 223 224 225 226 228 230 231 232 233 234 235 235 236 236 237 237 237 237 238 240 241 241 243 245 247 249 251 255 258 260 263 265 267 268 271 274 279 285 291 298 306 314
276 272 271 270 270 269 267 266 264 263 261 261 259 257 253 248 244 241 239 237 236 234 232 230 228 227 227 227 228 228 227 226 226 226 226 226 225 224 223 223 223 223 222 222 223 223 224 223 224 225 226 227 229 231 232 234 235 235 236 236 237 237 237 237 238 240 241 241 242 243 245 247 248 250 254 257 260 263 266 268 270 272 276 282 289 295 302 308
280 275 273 273 273 273 271 269 266 264 261 259 257 256 254 250 245 242 239 237 235 234 232 230 228 227 226 226 227 227 227 226 225 225 226 226 226 225 224 223 223 223 223 223 223 224 224 224 224 224 224 225 227 230 231 232 233 235 236 236 237 237 237 237 238 240 241 241 242 243 243 245 246 248 251 254 257 261 264 267 269 272 275 280 286 292 297 302
286 279 277 277 278 277 275 273 270 267 263 259 256 254 253 250 246 242 239 236 235 233 232 230 229 227 226 225 225 226 226 226 225 225 225 226 226 226 226 225 224 222 223 223 223 224 224 224 224 224 224 225 226 228 229 230 232 234 236 237 237 238 238 238 239 240 241 241 242 242 243 244 246 247 249 252 255 259 262 265 268 272 275 278 283 288 292 296
290 284 283 283 284 283 281 278 275 271 266 262 258 254 251 249 246 242 239 236 234 232 231 230 229 227 226 225 224 225 225 226 225 225 225 225 226 226 226 226 225 223 222 223 224 224 224 224 224 225 225 225 225 226 228 230 232 233 235 236 237 238 238 238 238 240 240 241 242 243 244 245 246 247 250 253 255 258 261 264 267 270 272 275 278 282 286 290
292 290 290 290 292 291 288 285 281 275 270 265 261 256 252 248 244 241 238 235 233 232 230 229 229 227 226 225 224 223 224 225 225 225 224 225 225 226 226 226 226 225 223 223 224 224 225 225 225 225 225 226 226 226 227 229 230 231 233 234 235 237 238 238 239 239 240 242 243 244 245 246 248 249 251 253 256 258 261 263 265 268 269 272 274 277 280 283
294 294 295 298 300 298 295 291 287 281 275 269 265 261 255 249 244 240 237 235 233 231 229 229 228 227 226 225 224 223 223 224 224 224 224 224 224 225 226 226 226 225 225 224 224 224 225 225 225 225 225 226 227 227 227 228 228 229 231 232 233 235 236 238 238 239 240 241 243 244 246 247 248 249 250 252 254 256 259 261 263 265 267 268 270 271 274 276
298 299 302 304 305 302 299 296 291 284 278 274 270 264 258 252 246 240 236 234 232 230 229 228 227 227 226 225 224 223 222 222 223 224 224 224 224 224 225 226 226 225 225 225 225 225 225 226 226 226 226 226 226 227 228 228 228 229 230 231 232 233 234 236 237 238 239 240 241 243 244 245 247 248 248 249 251 253 255 257 259 261 263 265 266 267 269 271
303 306 308 309 309 305 302 298 293 286 281 277 273 267 260 254 248 242 236 233 231 230 228 227 226 226 226 225 224 223 222 221 222 223 224 224 224 224 224 225 226 225 225 225 226 226 226 226 226 226 226 226 226 227 228 228 228 229 230 230 231 232 233 234 236 238 239 240 240 242 243 245 246 247 248 248 250 251 252 253 254 256 259 261 262 263 265 266
309 313 313 312 310 307 304 299 293 288 284 279 274 268 262 256 249 242 237 233 231 229 228 226 225 225 225 225 224 223 222 221 221 222 223 223 224 224 224 224 225 225 225 225 225 226 227 227 227 226 226 227 227 227 228 229 229 229 230 230 231 232 232 232 234 236 238 239 240 242 243 245 246 247 248 249 250 251 252 253 254 255 256 258 260 261 260 260
316 317 315 314 312 309 305 300 295 290 286 281 276 270 264 257 249 242 237 233 230 229 227 226 225 224 224 224 224 223 223 222 221 221 222 223 223 224 224 224 224 225 225 225 225 226 227 228 228 227 226 227 227 228 228 228 229 230 231 231 232 232 232 232 232 233 236 239 240 242 243 244 246 246 247 247 248 249 250 252 253 254 255 257 258 257 255 254
320 318 317 316 314 310 306 301 296 292 289 284 278 272 264 255 248 241 236 233 231 228 227 226 224 224 224 224 224 224 223 222 221 221 221 222 223 223 224 224 224 224 225 226 225 226 227 228 229 228 227 227 227 228 228 228 229 230 232 232 232 232 232 231 230 231 234 237 238 240 241 242 244 245 246 246 247 248 249 249 249 251 252 253 254 253 252 251
321 320 319 317 315 312 307 303 299 295 291 286 279 271 262 253 245 240 235 232 230 228 227 226 224 224 223 223 223 223 223 223 222 222 222 222 222 223 224 224 224 224 224 225 225 226 226 227 228 228 228 227 227 227 228 228 228 229 231 233 232 233 233 232 231 230 232 235 236 238 240 240 241 244 245 245 246 246 246 245 245 246 247 248 248 248 249 247
323 321 320 318 317 313 309 305 302 298 293 287 279 269 259 251 243 238 235 232 230 228 227 226 224 223 223 223 223 223 223 223 223 222 222 222 222 223 223 224 224 224 224 225 225 226 226 227 228 228 228 228 228 228 228 228 228 229 231 233 233 234 234 233 231 230 231 233 233 236 238 239 239 241 242 243 243 242 242 241 242 243 243 242 242 243 245 244
324 322 321 321 318 314 311 308 304 299 293 286 277 266 256 248 242 236 233 232 230 228 227 226 225 223 223 222 223 223 223 223 223 222 222 222 223 223 223 224 224 224 224 224 225 226 226 227 228 228 228 228 228 228 228 229 230 230 231 232 233 233 233 233 231 230 231 231 231 233 236 238 238 238 239 239 239 239 239 240 240 240 239 239 238 239 241 240
324 324 324 322 319 316 313 310 305 299 292 284 274 263 253 245 240 235 232 230 229 228 226 226 225 224 223 222 222 223 223 223 223 223 222 222 223 223 224 224 224 224 224 224 224 225 226 226 227 228 228 228 228 228 228 230 231 231 231 232 232 232 233 232 230 230 229 229 229 230 233 236 237 235 236 237 238 239 240 240 239 238 236 235 235 235 237 236
327 327 326 324 321 318 315 311 305 298 290 281 270 259 249 242 237 233 230 228 227 227 226 225 224 223 223 222 222 222 223 223 223 223 223 223 223 223 224 224 224 225 225 224 224 224 225 226 226 227 228 228 228 228 228 229 231 231 231 231 232 232 232 232 231 230 229 227 227 228 229 234 236 235 235 238 240 241 242 241 240 239 237 236 236 236 236 235
330 329 328 325 323 320 316 311 305 297 288 278 267 255 245 239 235 232 229 227 226 225 225 224 223 223 222 222 222 222 222 222 223 223 223 223 223 223 224 224 224 225 225 225 225 224 225 225 226 227 228 228 228 228 228 229 230 231 231 231 232 232 232 232 231 230 229 227 227 226 227 231 235 235 235 238 241 242 244 245 244 243 241 240 239 238 237 235
332 332 330 327 324 321 317 311 304 296 287 276 265 254 243 237 233 230 228 225 224 224 224 224 223 222 222 221 221 221 221 221 222 223 223 223 223 223 223 224 225 225 226 226 225 225 225 225 225 226 227 228 228 228 228 229 230 231 231 232 232 232 232 232 231 230 229 228 228 227 226 228 232 235 234 236 239 240 240 242 244 245 246 244 241 238 238 238
334 334 332 330 327 323 318 312 304 295 286 275 265 254 244 236 232 229 227 225 223 223 223 223 223 222 221 221 221 220 220 220 221 222 222 223 223 223 224 224 225 226 226 226 226 226 225 225 225 226 226 227 228 228 228 229 230 230 231 232 232 232 232 231 230 229 228 228 229 228 226 227 230 233 233 233 235 236 236 236 237 240 243 245 243 238 234 235
336 336 335 333 329 325 319 313 305 296 286 275 264 253 243 236 230 227 226 224 223 222 222 222 223 222 221 221 220 220 220 220 220 221 222 222 223 223 224 224 225 225 226 227 227 227 226 226 225 226 226 227 228 228 228 229 229 230 231 232 232 231 231 231 230 229 228 228 229 228 227 226 227 231 233 233 233 234 235 235 235 234 235 237 239 237 234 232
338 339 338 336 332 328 322 316 308 299 288 275 263 252 242 234 229 226 225 224 223 222 222 221 222 222 222 221 221 221 221 221 220 220 221 222 222 223 223 224 224 225 226 226 227 227 227 227 226 226 226 227 227 228 228 228 229 230 230 231 232 231 231 230 230 229 228 228 229 229 227 225 225 229 232 234 233 232 234 235 234 234 232 229 230 232 234 234
341 342 341 339 336 331 326 320 312 302 290 274 260 250 241 234 229 226 224 223 222 221 221 221 221 221 222 222 221 221 221 221 221 221 221 221 222 222 223 223 224 225 225 226 226 227 227 228 227 227 227 227 227 228 228 228 228 229 230 231 231 231 231 231 230 229 228 228 229 229 228 225 224 227 231 233 233 231 231 233 234 233 232 230 227 227 229 233
344 344 344 342 339 335 330 325 317 307 292 274 259 248 241 235 230 227 225 224 223 222 221 220 220 221 221 221 221 221 221 221 221 221 221 221 222 222 223 223 224 224 225 225 226 226 227 227 227 227 227 227 227 228 228 228 228 228 229 230 231 231 231 230 230 229 229 229 229 228 227 225 223 224 228 232 233 231 229 231 233 232 231 231 229 226 225 228
345 346 346 345 342 339 335 331 323 313 297 277 259 247 239 235 231 228 227 225 224 223 221 220 220 220 220 221 221 221 222 222 222 221 221 222 222 222 222 223 223 224 224 225 226 226 226 226 227 227 227 227 227 228 228 228 228 228 228 229 230 231 231 230 230 229 229 229 229 228 227 226 223 222 225 230 234 233 230 229 231 232 230 230 229 228 227 225
347 348 349 348 345 342 340 336 330 319 304 282 262 247 237 232 230 228 227 226 225 223 221 221 220 220 220 220 220 221 222 222 222 222 222 222 222 223 222 223 223 223 224 225 226 226 226 226 226 226 227 227 227 227 228 228 229 229 228 229 230 230 231 230 230 229 229 230 230 229 227 226 223 221 222 226 231 233 232 228 229 231 231 230 229 229 229 227
348 350 351 350 348 346 343 341 335 325 310 286 264 249 238 232 229 227 226 225 224 222 221 220 220 220 220 220 220 220 221 222 222 223 223 223 223 223 223 223 223 223 224 225 226 226 226 226 226 226 226 227 226 227 228 228 229 229 229 229 229 230 231 231 230 229 229 229 230 229 228 226 224 221 221 223 226 230 232 230 227 230 231 230 229 229 229 229
350 352 353 352 351 349 347 345 339 330 315 290 264 248 237 231 229 227 227 225 224 223 221 220 219 219 220 220 221 221 220 220 221 222 223 223 224 224 224 224 224 224 224 225 226 226 226 226 226 226 226 227 227 227 227 228 229 229 229 229 229 229 230 230 230 230 229 229 229 229 228 226 224 222 220 221 223 226 230 231 228 228 230 230 229 228 228 229
352 353 354 354 353 352 351 348 343 335 323 299 270 249 234 227 224 225 227 227 226 225 223 221 220 219 219 220 221 222 221 221 221 221 221 222 223 224 224 224 224 224 225 225 226 227 227 227 227 227 227 227 227 227 228 229 229 230 230 229 229 229 229 230 230 230 229 229 229 229 228 226 224 223 221 221 222 223 226 230 230 227 228 230 229 228 228 228
353 354 355 356 355 355 354 351 347 341 332 311 281 254 236 227 221 220 223 225 226 225 223 222 221 220 220 220 221 222 222 223 223 222 222 222 223 224 224 225 225 225 225 225 226 226 227 227 227 227 227 226 227 227 227 228 229 230 230 230 230 230 230 229 230 230 230 229 229 228 228 226 224 224 222 220 221 221 222 226 229 229 227 227 229 229 228 229
353 355 356 357 357 357 356 354 351 346 340 324 290 260 241 230 223 220 221 222 224 226 225 224 223 222 221 221 222 223 223 224 224 225 225 224 224 225 226 226 226 226 226 226 226 227 227 227 227 227 227 227 227 227 227 227 228 229 230 231 231 230 230 230 230 230 230 230 229 228 228 226 224 223 222 220 220 220 220 222 226 228 228 226 227 228 229 229
353 355 357 358 358 358 357 357 355 351 346 335 306 271 246 232 226 223 222 221 222 223 224 225 225 225 224 223 223 224 225 225 225 225 226 226 226 226 227 227 227 228 228 228 228 228 228 228 228 228 227 227 227 227 227 227 228 229 229 230 231 231 230 230 230 230 230 230 229 229 228 226 225 223 222 221 220 219 220 220 222 226 228 227 226 227 228 228
354 355 357 359 359 359 359 359 358 355 351 345 324 287 257 239 229 225 224 223 223 222 222 222 223 223 225 225 224 224 224 225 226 226 225 225 226 227 227 228 228 228 229 229 229 229 229 229 229 229 228 228 227 227 227 227 227 228 229 230 230 230 230 230 230 230 230 230 229 229 229 227 225 224 223 222 221 219 219 220 220 223 227 228 226 226 227 227
354 355 357 358 359 359 359 359 359 358 356 353 340 310 274 248 235 228 225 224 224 224 224 223 222 222 223 224 225 225 225 225 225 226 226 225 226 226 227 228 229 229 229 229 230 230 230 230 230 230 229 228 227 227 228 228 228 228 228 229 230 230 230 230 230 230 230 230 229 229 229 228 225 224 223 222 221 220 219 220 220 220 223 227 227 226 227 227
354 355 356 358 359 359 359 359 360 359 358 357 352 333 295 262 244 234 229 226 224 224 225 225 224 224 224 224 225 226 227 227 227 227 226 226 226 227 227 228 229 229 229 228 229 230 230 230 230 231 230 229 228 228 228 228 228 228 228 229 229 230 230 230 230 230 229 230 229 228 228 228 226 224 224 223 222 220 219 219 220 219 219 223 226 226 226 227
354 355 356 357 358 359 359 359 359 360 359 357 355 347 322 283 256 242 234 230 228 226 225 225 225 225 225 225 225 226 227 228 228 228 228 227 227 227 228 228 229 230 230 229 228 229 230 230 231 231 231 230 229 228 228 228 228 228 228 228 229 229 230 230 230 230 230 229 229 228 228 228 226 224 224 223 222 221 220 219 220 220 219 219 223 226 226 227
353 354 356 357 357 358 358 359 359 359 359 358 356 351 339 312 278 256 242 236 233 230 228 226 226 225 225 225 225 226 227 227 228 229 229 229 229 228 229 230 230 231 231 231 229 229 230 230 231 232 232 231 230 229 229 228 228 228 229 229 228 228 229 230 230 230 230 230 229 229 228 227 227 225 224 223 223 222 221 219 219 221 220 218 219 224 226 226
353 353 355 356 356 357 358 359 0 360 359 358 355 352 345 329 304 276 256 244 239 235 233 230 228 227 226 225 225 226 227 228 229 230 230 230 230 230 230 231 231 232 232 232 231 230 230 230 231 232 232 232 231 230 230 229 229 229 229 229 229 228 228 229 229 230 230 230 229 229 228 228 227 226 224 223 223 223 222 221 220 220 221 219 217 220 224 225
Height
10896 10897 10897 10898 10898 10898 10899 10900 10901 10902 10903 10904 10905 10905 10906 10907 10908 10909 10910 10911 10913 10915 10917 10919 10920 10922 10923 10925 10927 10929 10931 10933 10936 10938 10941 10943 10945 10947 10950 10951 10954 10956 10958 10960 10962 10963 10965 10966 10968 10969 10970 10972 10975 10977 10979 10980 10982 10984 10987 10989 10991 10992 10993 10994 10994 10995 10996 10997 10998 10999 11000 11001 11001 11002 11002 11002 11002 11002 11002 11002 11002 11001 11000 10999 10997 10995 10993 10992
10890 10890 10891 10892 10892 10893 10894 10895 10896 10897 10898 10899 10900 10901 10901 10902 10903 10904 10905 10906 10908 10910 10912 10914 10916 10918 10919 10921 10923 10925 10927 10929 10931 10934 10937 10939 10941 10944 10946 10948 10950 10953 10955 10957 10959 10961 10962 10963 10965 10966 10968 10970 10973 10975 10976 10978 10980 10983 10985 10987 10989 10990 10992 10993 10993 10994 10995 10996 10997 10998 10999 11000 11001 11002 11002 11002 11003 11002 11001 11001 11002 11001 11000 10999 10998 10996 10994 10993
10884 10884 10884 10885 10886 10886 10887 10888 10890 10891 10892 10893 10894 10895 10896 10897 10898 10899 10900 10901 10903 10905 10907 10909 10911 10913 10915 10916 10918 10920 10922 10925 10927 10930 10932 10935 10937 10940 10943 10944 10946 10949 10951 10954 10956 10957 10958 10960 10962 10964 10965 10967 10971 10973 10974 10976 10979 10981 10983 10985 10987 10988 10990 10991 10992 10993 10994 10995 10996 10997 10997 10998 11000 11001 11001 11002 11002 11002 11001 11001 11001 11001 11000 11000 10999 10997 10995 10994
10877 10877 10878 10878 10879 10879 10880 10881 10883 10884 10886 10887 10888 10889 10890 10891 10892 10894 10895 10896 10897 10899 10901 10904 10906 10908 10910 10912 10914 10916 10918 10920 10922 10925 10928 10931 10933 10936 10939 10940 10942 10945 10948 10950 10952 10954 10955 10957 10960 10962 10963 10965 10968 10971 10973 10974 10976 10979 10982 10983 10984 10986 10988 10989 10990 10992 10992 10993 10995 10996 10996 10997 10998 10999 11000 11001 11001 11001 11001 11000 11001 11001 11000 11000 10999 10998 10996 10995
10871 10871 10871 10871 10872 10872 10873 10874 10875 10877 10879 10880 10882 10883 10884 10885 10886 10888 10889 10891 10892 10894 10896 10898 10900 10902 10905 10907 10909 10911 10913 10915 10917 10920 10923 10926 10929 10931 10934 10936 10937 10941 10944 10947 10948 10950 10952 10955 10957 10958 10959 10961 10965 10969 10971 10972 10974 10977 10979 10981 10982 10984 10985 10987 10988 10989 10991 10992 10994 10995 10995 10996 10997 10998 10999 11000 11000 11000 11001 11000 11000 11001 11000 11000 10999 10998 10997 10996
10865 10864 10864 10864 10864 10865 10865 10866 10867 10869 10871 10873 10875 10876 10877 10878 10880 10881 10883 10884 10886 10888 10890 10892 10894 10896 10899 10901 10904 10906 10908 10910 10912 10915 10918 10921 10924 10926 10929 10931 10933 10936 10940 10942 10945 10947 10949 10952 10954 10955 10956 10958 10963 10967 10969 10970 10972 10974 10977 10979 10980 10981 10982 10984 10985 10987 10989 10990 10992 10994 10995 10995 10996 10997 10998 10999 11000 11000 11000 11000 11000 11000 11000 11000 10999 10999 10998 10997
10859 10858 10857 10856 10857 10857 10858 10859 10860 10861 10863 10865 10867 10868 10870 10871 10872 10874 10876 10878 10879 10881 10883 10886 10888 10890 10892 10895 10898 10901 10903 10905 10907 10910 10913 10915 10918 10921 10924 10927 10929 10932 10935 10938 10941 10943 10946 10948 10950 10952 10953 10956 10960 10964 10966 10968 10969 10971 10974 10975 10976 10977 10979 10981 10983 10985 10987 10988 10990 10992 10994 10995 10996 10997 10997 10998 10999 11000 11000 11000 10999 11000 11000 11000 10999 10999 10999 10998
10852 10851 10850 10849 10849 10849 10850 10850 10852 10853 10855 10857 10859 10860 10862 10863 10864 10866 10869 10871 10873 10874 10877 10879 10882 10884 10886 10889 10892 10895 10897 10900 10902 10905 10907 10910 10913 10915 10918 10921 10924 10927 10930 10933 10936 10938 10942 10945 10947 10949 10951 10954 10957 10960 10962 10964 10967 10968 10970 10970 10972 10974 10977 10979 10981 10983 10985 10987 10988 10990 10992 10994 10994 10995 10996 10997 10998 10999 10999 11000 10999 10999 11000 11000 10999 11000 10999 10999
10845 10844 10843 10842 10841 10841 10841 10842 10843 10845 10846 10848 10850 10852 10853 10854 10856 10858 10860 10863 10865 10868 10870 10872 10875 10877 10879 10882 10885 10889 10891 10894 10897 10899 10901 10904 10907 10910 10912 10915 10919 10922 10924 10927 10931 10934 10938 10941 10944 10946 10948 10950 10953 10955 10958 10961 10963 10964 10965 10966 10968 10972 10975 10978 10980 10981 10983 10985 10986 10988 10990 10992 10993 10994 10995 10996 10997 10998 10999 11000 10999 10999 11000 11000 11000 11000 11000 10999
10838 10837 10835 10834 10833 10832 10832 10833 10834 10835 10837 10839 10841 10843 10844 10845 10847 10849 10852 10855 10858 10860 10862 10865 10867 10870 10873 10875 10878 10882 10885 10888 10890 10893 10896 10898 10901 10904 10907 10909 10913 10916 10919 10922 10927 10931 10934 10937 10939 10941 10944 10946 10948 10951 10954 10958 10959 10960 10961 10963 10966 10969 10972 10975 10977 10979 10981 10983 10984 10986 10988 10989 10991 10992 10994 10995 10995 10997 10998 10999 10999 10998 10999 11000 11000 11000 11000 11000
10831 10830 10828 10826 10825 10824 10823 10823 10823 10825 10827 10830 10832 10833 10834 10835 10838 10841 10843 10846 10849 10852 10854 10857 10860 10863 10865 10868 10871 10875 10878 10882 10884 10887 10890 10893 10896 10899 10901 10904 10907 10910 10913 10918 10923 10927 10928 10931 10934 10936 10940 10942 10944 10947 10951 10954 10955 10956 10958 10961 10963 10966 10969 10972 10975 10977 10979 10981 10983 10984 10986 10987 10989 10990 10991 10993 10994 10995 10997 10998 10999 10998 10998 11000 11000 11000 11000 11000
10824 10822 10820 10818 10816 10815 10814 10813 10813 10814 10816 10819 10821 10823 10823 10824 10828 10832 10834 10836 10840 10842 10846 10849 10853 10855 10857 10860 10864 10867 10872 10875 10878 10881 10884 10887 10890 10893 10896 10898 10901 10904 10908 10914 10919 10921 10923 10926 10929 10932 10936 10938 10939 10943 10948 10949 10950 10952 10955 10957 10960 10963 10967 10970 10973 10975 10977 10979 10981 10982 10984 10986 10987 10988 10989 10991 10992 10994 10995 10997 10999 10999 10998 10999 11000 11000 11000 11000
10818 10815 10813 10810 10808 10806 10805 10804 10804 10804 10805 10807 10810 10812 10811 10813 10818 10822 10824 10826 10830 10833 10836 10841 10844 10847 10849 10852 10856 10860 10865 10868 10871 10874 10877 10881 10884 10887 10890 10893 10896 10899 10904 10910 10912 10914 10917 10920 10924 10928 10930 10932 10936 10939 10942 10943 10946 10950 10951 10954 10957 10960 10964 10968 10971 10972 10975 10978 10979 10981 10983 10985 10986 10987 10988 10989 10991 10992 10994 10996 10998 10998 10998 10998 10999 11000 11000 11000
10811 10808 10805 10802 10800 10798 10796 10795 10794 10793 10794 10795 10798 10799 10799 10803 10808 10811 10813 10816 10819 10822 10826 10831 10835 10839 10841 10844 10848 10852 10858 10861 10864 10867 10870 10874 10878 10881 10884 10887 10891 10895 10899 10904 10905 10907 10912 10915 10919 10922 10924 10928 10932 10934 10936 10939 10942 10946 10948 10951 10953 10957 10961 10965 10968 10970 10973 10976 10977 10979 10981 10983 10985 10985 10986 10988 10989 10991 10992 10994 10996 10998 10998 10997 10998 10999 11000 11000
10803 10800 10797 10794 10791 10789 10787 10785 10784 10783 10783 10784 10786 10787 10787 10791 10796 10799 10801 10805 10808 10811 10817 10822 10826 10829 10833 10836 10839 10844 10849 10853 10857 10860 10863 10867 10871 10874 10877 10881 10885 10889 10894 10897 10899 10902 10907 10910 10913 10915 10920 10925 10927 10928 10932 10935 10938 10941 10944 10947 10950 10954 10958 10962 10966 10968 10970 10973 10975 10976 10979 10981 10983 10984 10984 10986 10987 10989 10990 10992 10994 10996 10997 10997 10997 10998 10999 11000
10795 10792 10789 10786 10782 10779 10777 10775 10774 10773 10773 10773 10774 10774 10775 10779 10783 10786 10790 10793 10796 10800 10806 10811 10815 10819 10823 10827 10830 10835 10841 10845 10849 10852 10855 10859 10863 10867 10871 10875 10879 10884 10888 10891 10894 10897 10901 10904 10907 10911 10915 10918 10920 10923 10927 10930 10933 10937 10940 10943 10946 10950 10954 10958 10963 10965 10967 10970 10971 10974 10976 10978 10980 10982 10982 10983 10985 10987 10988 10990 10992 10994 10996 10996 10997 10997 10998 10999
10787 10783 10780 10777 10773 10769 10767 10766 10764 10763 10762 10762 10763 10762 10763 10767 10771 10774 10777 10781 10785 10789 10794 10799 10804 10808 10813 10817 10822 10827 10832 10836 10841 10845 10848 10851 10855 10860 10864 10868 10873 10878 10883 10886 10889 10891 10894 10898 10902 10905 10909 10912 10914 10918 10922 10925 10928 10931 10935 10939 10943 10946 10950 10955 10959 10961 10963 10966 10968 10971 10973 10974 10977 10979 10980 10981 10983 10984 10986 10988 10990 10992 10994 10996 10996 10997 10997 10998
10778 10774 10771 10768 10764 10760 10757 10755 10754 10752 10751 10751 10751 10752 10752 10755 10758 10761 10764 10769 10772 10776 10782 10788 10792 10797 10802 10807 10812 10817 10822 10827 10832 10837 10840 10844 10847 10852 10856 10861 10867 10872 10876 10879 10882 10885 10888 10893 10897 10900 10903 10906 10909 10913 10916 10919 10923 10928 10932 10935 10939 10942 10946 10951 10955 10957 10959 10962 10964 10966 10969 10971 10973 10976 10978 10979 10981 10982 10984 10986 10988 10990 10992 10994 10996 10996 10997 10997
10769 10765 10761 10758 10755 10751 10747 10745 10743 10741 10739 10739 10740 10741 10741 10742 10745 10747 10750 10755 10759 10763 10770 10775 10780 10785 10791 10796 10802 10807 10813 10818 10824 10828 10832 10836 10840 10844 10849 10854 10860 10866 10870 10873 10876 10879 10882 10887 10891 10893 10896 10899 10904 10908 10911 10915 10920 10924 10927 10931 10934 10937 10941 10946 10950 10952 10955 10958 10960 10963 10966 10968 10971 10974 10976 10977 10979 10980 10982 10984 10986 10988 10990 10993 10994 10995 10996 10996
10761 10756 10752 10749 10746 10741 10737 10734 10732 10730 10728 10727 10729 10730 10730 10730 10731 10733 10736 10740 10744 10750 10757 10763 10768 10774 10780 10785 10791 10797 10803 10809 10814 10819 10824 10828 10832 10837 10841 10847 10852 10858 10863 10867 10870 10873 10877 10882 10884 10886 10890 10895 10900 10903 10907 10912 10916 10919 10922 10926 10929 10933 10937 10941 10945 10948 10951 10954 10957 10960 10963 10966 10969 10972 10974 10976 10977 10979 10980 10982 10984 10986 10988 10990 10993 10994 10995 10995
10752 10748 10744 10740 10737 10732 10727 10724 10721 10719 10716 10716 10718 10718 10716 10716 10716 10718 10722 10726 10730 10737 10744 10751 10756 10763 10768 10774 10780 10787 10793 10798 10803 10809 10814 10819 10824 10828 10833 10838 10845 10851 10855 10860 10864 10867 10872 10875 10875 10879 10886 10891 10894 10898 10902 10907 10911 10914 10917 10920 10924 10928 10932 10936 10940 10943 10947 10951 10954 10957 10959 10963 10966 10968 10971 10974 10975 10977 10978 10980 10982 10984 10986 10988 10990 10992 10993 10994
10743 10739 10735 10732 10728 10723 10718 10715 10711 10708 10705 10705 10706 10705 10703 10703 10704 10706 10710 10713 10717 10723 10731 10737 10743 10751 10757 10763 10769 10776 10782 10787 10793 10799 10805 10810 10815 10820 10825 10830 10836 10842 10848 10853 10857 10862 10865 10866 10868 10874 10881 10885 10889 10893 10897 10902 10906 10909 10911 10915 10918 10922 10927 10931 10935 10939 10943 10947 10951 10953 10955 10959 10962 10964 10967 10970 10972 10974 10975 10977 10979 10981 10983 10985 10987 10990 10991 10992
10734 10731 10727 10724 10720 10713 10708 10704 10700 10697 10695 10694 10693 10691 10690 10691 10692 10695 10697 10700 10704 10710 10716 10723 10731 10739 10747 10752 10757 10763 10770 10776 10783 10789 10795 10800 10806 10812 10817 10822 10828 10834 10841 10846 10851 10855 10857 10857 10861 10868 10875 10879 10883 10887 10892 10897 10901 10903 10905 10908 10910 10915 10922 10927 10931 10935 10939 10943 10947 10949 10952 10956 10957 10960 10963 10966 10969 10971 10972 10974 10976 10978 10980 10982 10985 10987 10989 10990
10726 10722 10719 10716 10711 10704 10698 10693 10689 10686 10684 10682 10680 10678 10679 10679 10681 10683 10685 10688 10692 10697 10702 10710 10719 10727 10734 10739 10745 10752 10759 10766 10773 10779 10785 10791 10797 10803 10809 10816 10821 10827 10832 10838 10843 10847 10848 10850 10855 10863 10870 10874 10878 10882 10888 10892 10895 10897 10899 10901 10903 10909 10918 10923 10928 10932 10934 10939 10943 10946 10950 10953 10954 10956 10960 10963 10965 10967 10969 10972 10974 10975 10977 10979 10982 10985 10987 10988
10718 10714 10710 10706 10702 10695 10687 10682 10678 10676 10673 10671 10668 10667 10668 10668 10669 10671 10674 10676 10680 10685 10690 10698 10707 10714 10721 10728 10735 10742 10748 10756 10764 10769 10775 10781 10789 10795 10801 10808 10813 10819 10825 10830 10836 10840 10841 10844 10851 10858 10864 10868 10873 10877 10882 10886 10889 10892 10892 10893 10897 10905 10913 10919 10925 10928 10930 10935 10940 10943 10947 10949 10950 10952 10956 10958 10961 10964 10966 10969 10971 10972 10975 10977 10980 10982 10984 10985
10710 10706 10701 10696 10692 10685 10677 10671 10667 10665 10661 10659 10657 10656 10656 10657 10658 10660 10662 10665 10669 10674 10679 10686 10694 10701 10709 10717 10724 10731 10737 10745 10753 10760 10766 10773 10780 10787 10793 10799 10806 10812 10818 10823 10829 10832 10834 10838 10845 10850 10856 10862 10866 10871 10875 10879 10883 10885 10883 10885 10893 10901 10907 10914 10921 10925 10926 10931 10936 10938 10942 10944 10945 10947 10951 10953 10956 10960 10962 10964 10966 10968 10972 10975 10976 10979 10981 10983
10703 10698 10692 10686 10681 10674 10667 10660 10656 10653 10650 10648 10646 10645 10645 10646 10648 10649 10652 10655 10659 10664 10668 10675 10683 10690 10698 10706 10712 10720 10728 10736 10744 10751 10758 10765 10772 10778 10785 10792 10798 10804 10810 10815 10819 10822 10826 10832 10836 10841 10849 10855 10860 10864 10867 10872 10876 10875 10873 10879 10889 10895 10901 10909 10917 10921 10923 10928 10932 10933 10936 10939 10940 10942 10946 10949 10952 10954 10956 10959 10961 10965 10969 10971 10973 10975 10977 10980
10695 10689 10683 10676 10670 10663 10656 10650 10646 10642 10639 10636 10635 10635 10635 10636 10638 10640 10643 10646 10650 10655 10660 10666 10672 10679 10688 10695 10701 10710 10718 10726 10735 10744 10751 10757 10763 10769 10776 10783 10790 10796 10802 10807 10810 10814 10819 10824 10827 10834 10841 10847 10852 10855 10859 10865 10867 10864 10867 10877 10885 10890 10896 10904 10912 10917 10920 10925 10928 10929 10930 10933 10935 10938 10941 10944 10946 10947 10949 10953 10957 10961 10965 10968 10970 10972 10974 10977
10687 10681 10674 10666 10659 10651 10645 10640 10636 10631 10628 10626 10625 10625 10625 10627 10629 10631 10634 10637 10642 10647 10652 10657 10663 10669 10677 10684 10691 10700 10708 10717 10727 10736 10743 10748 10754 10761 10767 10775 10782 10788 10793 10797 10801 10806 10812 10816 10821 10827 10834 10839 10843 10847 10854 10859 10856 10857 10866 10873 10878 10884 10889 10897 10906 10911 10916 10922 10924 10925 10925 10926 10930 10934 10936 10937 10938 10940 10944 10948 10953 10957 10961 10963 10966 10968 10971 10973
10679 10672 10664 10657 10649 10641 10635 10630 10626 10621 10618 10616 10616 10616 10616 10617 10620 10623 10626 10629 10634 10639 10644 10649 10654 10660 10667 10674 10681 10689 10698 10709 10719 10727 10733 10739 10745 10751 10758 10765 10772 10777 10781 10786 10792 10798 10803 10808 10814 10819 10825 10830 10834 10841 10848 10850 10847 10853 10862 10865 10869 10876 10882 10890 10899 10904 10912 10918 10919 10920 10921 10920 10923 10928 10930 10930 10931 10936 10941 10945 10949 10953 10956 10959 10962 10965 10968 10970
10672 10664 10655 10647 10640 10632 10626 10621 10615 10612 10608 10607 10607 10607 10608 10609 10611 10614 10617 10621 10627 10631 10636 10641 10646 10651 10658 10664 10671 10680 10691 10701 10710 10717 10723 10729 10735 10741 10748 10755 10760 10764 10769 10775 10782 10788 10794 10800 10806 10811 10817 10821 10826 10833 10840 10840 10840 10846 10854 10857 10862 10868 10875 10883 10892 10898 10907 10911 10911 10914 10917 10915 10917 10923 10926 10926 10929 10935 10939 10943 10946 10949 10952 10955 10958 10962 10965 10967
10665 10656 10647 10638 10630 10623 10617 10611 10606 10603 10600 10598 10598 10599 10599 10601 10603 10606 10610 10615 10620 10624 10628 10632 10637 10643 10649 10655 10662 10672 10683 10692 10699 10706 10712 10719 10725 10731 10738 10744 10749 10753 10758 10765 10772 10779 10786 10793 10799 10803 10808 10812 10817 10824 10830 10831 10833 10839 10845 10850 10855 10861 10868 10877 10886 10894 10901 10903 10904 10908 10912 10910 10912 10919 10924 10924 10929 10936 10939 10942 10945 10947 10950 10953 10956 10960 10963 10964
10658 10649 10639 10630 10622 10614 10608 10603 10598 10594 10592 10591 10590 10591 10592 10594 10596 10599 10603 10608 10612 10616 10620 10624 10630 10635 10640 10647 10655 10664 10673 10680 10687 10694 10701 10709 10715 10721 10728 10734 10740 10744 10749 10756 10763 10771 10779 10785 10791 10794 10798 10803 10808 10815 10821 10823 10826 10832 10837 10843 10848 10855 10863 10872 10880 10888 10893 10895 10897 10903 10907 10907 10909 10915 10919 10922 10927 10933 10936 10939 10943 10946 10949 10951 10954 10958 10960 10962
10651 10642 10632 10623 10614 10606 10600 10595 10591 10587 10585 10584 10584 10585 10586 10588 10591 10593 10597 10600 10604 10608 10613 10617 10623 10628 10633 10640 10647 10654 10661 10668 10675 10683 10690 10698 10705 10711 10718 10724 10730 10735 10740 10748 10755 10762 10770 10776 10781 10785 10789 10794 10800 10807 10813 10816 10820 10825 10830 10835 10841 10848 10856 10865 10873 10879 10884 10887 10891 10897 10901 10903 10907 10910 10913 10918 10923 10927 10930 10934 10938 10942 10946 10949 10952 10955 10956 10958
10644 10635 10625 10615 10606 10599 10593 10588 10584 10581 10579 10578 10578 10579 10580 10582 10585 10587 10590 10594 10597 10602 10607 10612 10617 10622 10627 10633 10639 10645 10651 10657 10664 10672 10679 10687 10694 10700 10707 10714 10720 10726 10732 10739 10746 10752 10759 10765 10771 10776 10781 10786 10792 10799 10805 10809 10813 10818 10823 10827 10833 10841 10848 10856 10863 10870 10876 10880 10883 10889 10894 10901 10906 10906 10907 10913 10919 10923 10926 10930 10933 10937 10941 10946 10949 10950 10951 10953
10638 10628 10618 10608 10599 10592 10586 10582 10578 10575 10574 10573 10573 10573 10574 10576 10579 10581 10583 10587 10591 10595 10601 10606 10611 10617 10622 10627 10633 10638 10643 10649 10656 10662 10669 10676 10683 10690 10697 10704 10711 10717 10722 10729 10736 10742 10748 10754 10762 10768 10773 10779 10785 10790 10796 10801 10805 10811 10815 10819 10825 10833 10840 10846 10853 10861 10867 10872 10875 10881 10889 10898 10902 10901 10903 10908 10915 10919 10922 10925 10929 10932 10936 10939 10942 10944 10947 10949
10633 10623 10612 10601 10593 10586 10581 10576 10573 10570 10569 10568 10567 10568 10569 10571 10573 10575 10578 10581 10585 10589 10595 10600 10606 10611 10616 10621 10627 10632 10636 10642 10648 10655 10661 10667 10673 10680 10687 10694 10701 10706 10712 10717 10724 10731 10736 10743 10751 10758 10763 10770 10776 10781 10786 10791 10796 10803 10807 10810 10818 10825 10830 10837 10844 10851 10858 10862 10866 10873 10884 10893 10897 10899 10900 10902 10908 10914 10917 10920 10924 10928 10931 10933 10935 10938 10942 10945
10628 10618 10607 10596 10587 10581 10575 10571 10568 10566 10564 10563 10563 10563 10565 10567 10569 10571 10573 10576 10580 10585 10590 10596 10601 10606 10610 10615 10620 10624 10629 10634 10640 10646 10652 10658 10664 10670 10677 10683 10689 10694 10699 10705 10711 10718 10724 10731 10739 10746 10753 10760 10767 10771 10777 10782 10787 10794 10798 10803 10810 10815 10821 10828 10835 10843 10850 10853 10859 10868 10878 10886 10893 10896 10896 10896 10901 10909 10913 10916 10919 10923 10927 10929 10931 10933 10936 10939
10623 10613 10602 10592 10583 10576 10571 10567 10564 10562 10560 10559 10559 10560 10561 10563 10565 10567 10569 10572 10576 10582 10587 10592 10596 10600 10605 10610 10614 10617 10622 10627 10632 10638 10644 10649 10655 10660 10666 10672 10677 10683 10688 10693 10698 10705 10712 10718 10727 10734 10741 10750 10758 10762 10768 10773 10779 10785 10791 10796 10801 10806 10812 10819 10826 10835 10841 10845 10852 10862 10870 10880 10888 10891 10891 10892 10896 10902 10909 10912 10914 10918 10922 10924 10927 10930 10931 10934
10618 10609 10598 10588 10580 10573 10568 10563 10560 10558 10557 10556 10556 10557 10558 10559 10561 10564 10567 10569 10573 10578 10583 10588 10591 10595 10599 10604 10607 10611 10615 10620 10625 10630 10635 10640 10644 10649 10655 10661 10667 10672 10677 10682 10686 10692 10699 10706 10715 10723 10730 10738 10747 10753 10759 10765 10770 10776 10783 10789 10793 10798 10804 10811 10818 10826 10832 10837 10845 10854 10864 10874 10881 10885 10887 10890 10892 10896 10902 10908 10910 10913 10917 10920 10923 10926 10928 10930
10614 10604 10595 10586 10578 10571 10565 10561 10557 10555 10554 10554 10554 10554 10555 10556 10558 10560 10563 10565 10569 10573 10578 10582 10586 10590 10594 10598 10601 10604 10608 10612 10617 10622 10626 10631 10635 10639 10645 10651 10657 10662 10666 10671 10674 10680 10687 10695 10704 10713 10720 10727 10736 10744 10750 10756 10761 10767 10775 10780 10785 10790 10797 10804 10810 10817 10824 10830 10837 10846 10857 10867 10873 10878 10882 10885 10887 10890 10895 10901 10906 10909 10911 10914 10918 10921 10924 10926
10611 10601 10592 10585 10577 10570 10564 10559 10556 10553 10552 10551 10551 10552 10553 10554 10555 10557 10560 10562 10565 10568 10573 10577 10581 10585 10589 10592 10595 10598 10601 10605 10609 10614 10619 10623 10627 10631 10636 10641 10647 10651 10656 10660 10664 10669 10677 10685 10694 10703 10711 10718 10728 10737 10742 10746 10752 10759 10765 10771 10776 10782 10788 10795 10801 10809 10816 10822 10828 10838 10848 10857 10863 10870 10875 10879 10882 10885 10888 10894 10900 10904 10906 10909 10913 10916 10919 10921
10609 10599 10591 10583 10575 10568 10563 10558 10554 10552 10550 10549 10549 10549 10551 10552 10553 10555 10557 10560 10562 10565 10569 10573 10576 10580 10583 10586 10590 10593 10596 10599 10602 10606 10610 10614 10618 10622 10626 10631 10636 10640 10645 10650 10655 10660 10667 10676 10684 10693 10702 10710 10719 10728 10734 10739 10744 10750 10755 10761 10767 10773 10780 10786 10792 10799 10807 10813 10820 10829 10838 10847 10855 10862 10869 10873 10877 10881 10883 10886 10892 10897 10900 10903 10907 10911 10914 10916
10607 10599 10590 10582 10574 10567 10561 10557 10553 10550 10549 10547 10547 10547 10548 10549 10550 10552 10553 10556 10558 10561 10565 10569 10572 10575 10578 10581 10584 10587 10590 10594 10597 10600 10603 10606 10609 10613 10617 10621 10625 10630 10635 10640 10645 10650 10657 10664 10673 10682 10692 10701 10709 10717 10725 10731 10736 10741 10747 10752 10758 10764 10772 10779 10784 10790 10797 10804 10813 10820 10827 10837 10846 10854 10861 10867 10871 10875 10878 10879 10883 10889 10894 10897 10901 10905 10908 10912
10604 10597 10589 10581 10573 10567 10561 10557 10553 10550 10548 10546 10545 10545 10546 10547 10548 10549 10550 10553 10555 10558 10562 10565 10568 10570 10573 10576 10579 10582 10586 10589 10593 10596 10600 10603 10605 10608 10611 10614 10618 10622 10627 10631 10636 10641 10647 10654 10663 10672 10682 10690 10699 10707 10714 10720 10725 10731 10736 10742 10749 10755 10763 10770 10776 10782 10789 10796 10804 10811 10817 10827 10837 10845 10852 10859 10864 10868 10871 10873 10876 10880 10886 10891 10895 10899 10903 10907
10600 10594 10587 10579 10573 10567 10561 10557 10553 10549 10547 10545 10544 10544 10544 10545 10546 10547 10548 10550 10552 10554 10558 10561 10564 10567 10570 10572 10576 10578 10581 10585 10588 10591 10595 10598 10601 10603 10605 10608 10611 10615 10619 10624 10628 10633 10639 10646 10654 10664 10672 10681 10689 10696 10703 10709 10715 10720 10725 10731 10737 10744 10753 10761 10767 10774 10781 10787 10794 10801 10807 10817 10828 10835 10842 10850 10856 10860 10864 10868 10871 10873 10878 10884 10889 10893 10897 10901
10599 10591 10585 10578 10572 10566 10561 10556 10552 10549 10546 10544 10543 10542 10543 10543 10544 10545 10546 10548 10549 10551 10554 10556 10560 10562 10565 10567 10571 10573 10576 10579 10582 10586 10589 10592 10594 10597 10599 10601 10604 10607 10612 10617 10622 10628 10634 10640 10647 10654 10662 10670 10678 10685 10692 10698 10704 10709 10715 10720 10727 10734 10743 10751 10758 10765 10771 10777 10784 10791 10798 10808 10819 10826 10833 10841 10847 10853 10857 10861 10865 10868 10871 10876 10882 10886 10891 10896
10598 10590 10583 10576 10570 10565 10559 10555 10552 10549 10546 10544 10542 10541 10541 10541 10542 10542 10543 10544 10546 10548 10550 10552 10555 10557 10559 10562 10565 10567 10570 10573 10576 10579 10582 10585 10588 10590 10593 10595 10597 10600 10605 10610 10615 10620 10626 10632 10636 10641 10648 10657 10665 10672 10679 10685 10691 10698 10703 10710 10717 10724 10732 10740 10747 10755 10761 10765 10773 10782 10788 10799 10810 10816 10823 10831 10838 10844 10849 10853 10857 10862 10865 10869 10874 10879 10884 10888
10597 10590 10582 10575 10569 10563 10558 10554 10551 10548 10545 10543 10542 10541 10540 10540 10540 10540 10541 10542 10543 10544 10546 10549 10551 10554 10556 10558 10560 10562 10564 10567 10570 10573 10575 10579 10581 10583 10586 10588 10590 10592 10596 10601 10607 10611 10615 10620 10624 10628 10634 10643 10652 10660 10667 10673 10679 10685 10692 10699 10707 10714 10721 10728 10735 10743 10749 10754 10763 10772 10778 10787 10798 10806 10813 10821 10827 10834 10839 10844 10849 10855 10859 10863 10867 10872 10876 10880
10595 10589 10582 10574 10568 10562 10557 10553 10549 10546 10544 10542 10541 10539 10538 10538 10538 10538 10538 10539 10540 10541 10543 10545 10547 10549 10552 10554 10555 10557 10559 10561 10563 10566 10568 10571 10574 10576 10578 10580 10582 10584 10588 10593 10598 10602 10606 10610 10613 10617 10622 10630 10639 10648 10655 10661 10667 10673 10680 10687 10695 10703 10709 10716 10722 10730 10736 10743 10752 10761 10768 10776 10786 10795 10803 10810 10817 10823 10829 10835 10840 10846 10853 10857 10860 10863 10868 10872
10594 10588 10581 10574 10568 10562 10557 10552 10548 10545 10543 10541 10539 10538 10537 10536 10536 10535 10536 10536 10536 10537 10539 10540 10542 10544 10546 10549 10550 10552 10553 10555 10557 10559 10561 10564 10567 10570 10572 10574 10576 10578 10581 10585 10590 10594 10598 10602 10604 10607 10612 10618 10626 10635 10642 10648 10655 10661 10667 10674 10682 10691 10697 10703 10710 10717 10723 10732 10742 10750 10757 10765 10774 10783 10792 10799 10805 10812 10818 10824 10830 10836 10844 10850 10854 10856 10861 10865
10592 10586 10580 10574 10568 10562 10557 10552 10548 10544 10542 10539 10537 10536 10535 10534 10533 10533 10533 10533 10533 10534 10535 10536 10538 10539 10541 10543 10545 10546 10548 10550 10551 10553 10555 10557 10560 10563 10566 10568 10569 10572 10575 10578 10582 10586 10590 10594 10596 10598 10602 10607 10614 10622 10629 10635 10641 10648 10654 10661 10669 10677 10684 10691 10698 10704 10710 10720 10730 10738 10746 10756 10763 10771 10780 10788 10794 10800 10807 10814 10820 10826 10833 10841 10847 10850 10854 10858